Retour au catalogue

COSMOS 2251 DEB

ActifLEO
NORAD 34343·DEBRIS·🇷🇺 Russia

Lancé Jun 16, 1993 depuis Plesetsk Cosmodrome

Loading…

Prochains Passages (prochaines 24 heures)

TLE

FraisSource: Space-Track

Époque: Sep 14, 2026, 01:56 UTC

1 34343U 93036PR  26257.08087696  .00004300  00000-0  66522-3 0  9995
2 34343  74.0159 273.6256 0016492 123.5147 300.1069 14.73481234927814

Suivez COSMOS 2251 DEB en temps réel avec AllMySat

Download on the App Store